Powrót do katalogu

COSMOS 1473

AktywnyMilitariaLEO
NORAD 14171·PAYLOAD·🇷🇺 Russia

Wystrzelony Jul 6, 1983 z Plesetsk Cosmodrome

Loading…

Następne Przeloty (najbliższe 24 godziny)

TLE

ŚwieżeSource: Space-Track

Epoka: Sep 14, 2026, 21:47 UTC

1 14171U 83069A   26257.90770537 -.00000023  00000-0 -43235-4 0  9998
2 14171  74.0230 228.0079 0043062 116.3353 272.1815 12.58768068984825

Śledź COSMOS 1473 w czasie rzeczywistym z AllMySat

Download on the App Store